LiveATC.Net - Listen to live air traffic control over the Internet!


ICAO: SBMG  IATA: MGF   Airport: Regional de Maringa Silvio Name Junior Airport
City: Maringa
Country: Brazil   Continent: South America
SBMG METAR Weather: SBMG 161900Z 12003KT 9999 FEW040 SCT080 30/19 Q1017
SBMG Flight Activity (FlightAware)

SBMG Twr/App
Feed Status: UP   Listeners: 3
Listen in your browser - HTML5 player (in browser, HTML5)
Click here to listen with your own player (launches your MP3 player)
Archive Access: SBMG Twr/App
FacilityFrequency
Londrina Approach129.700
Maringa Tower118.750
UNICOM123.450

NOTICE

Unauthorized use prohibited. See LiveATC.net Terms of Service


Airport/ARTCC Code
Frequency Search
(e.g., 124.400, 128.75)
Site-wide search
 


Browse Feeds
Top 50 Feeds
HF Oceanic Feeds
Coverage Map
Bad Weather Areas

LiveATC FAQ
Offer LiveATC feed
Contact LiveATC.net
Press Inquiries

LiveATC on iPhone
LiveATC on Android

Windows Phone
Windows 8/10

LiveATC Mobile
(Mobile browser)

ATC Audio Archives
Interesting Recordings

LiveATC Forums


Home Page
About LiveATC.net
Make a Donation
Terms of Use
Privacy Policy

Canadian Air Freqs

AIRMETs/SIGMETs

FAA Airport Status
NAS Status
Arrival Demand


Server Software By:
Icecast.org
Liquidsoap